Weather Roundup
Issued by NWS Springfield, MO

Home | Current Version | Previous Version | Text Only | Print | Product List | Glossary On
Versions: 1 2 3 4 5 6 7 8 9 10 11 12 13 14 15 16 17 18 19 20 21 22 23 24 25 26 27 28 29 30 31 32 33 34 35 36 37 38 39 40 41 42 43 44 45 46 47 48 49 50
000
NZUS99 KSGF 160559
HRRSGF

HOURLY WEATHER
NATIONAL WEATHER SERVICE SPRINGFIELD MO
100 AM CDT WED APR 16 2014

......SGF CWA......

CITY           SKY/WX    TMP DP  RH WIND       PRES   REMARKS
SPRINGFIELD    FAIR      42  23  46 SE12      30.12S
6HR MIN TEMP:  39; 6HR MAX TEMP:  51;

JOPLIN         FAIR      45  25  45 SE10      30.09S
6HR MIN TEMP:  45; 6HR MAX TEMP:  54;

WEST PLAINS    FAIR      39  22  50 SE8       30.20R WCI  33
6HR MIN TEMP:  37; 6HR MAX TEMP:  50;

ROLLA          FAIR      38  21  50 SE9       30.15R WCI  31
6HR MIN TEMP:  35; 6HR MAX TEMP:  47;

OSAGE BEACH    FAIR      37  23  56 SE5       30.15F WCI  34

......SURROUNDING SGF CWA......

CITY           SKY/WX    TMP DP  RH WIND       PRES   REMARKS
CHANUTE        FAIR      47  28  47 SE15      30.03F
PARSONS        FAIR      47  28  47 SE8       30.05F
COFFEYVILLE    FAIR      45  29  53 SE9       30.05F
EMPORIA        FAIR      48  27  44 S22G30    29.94F
HARRISON AR    FAIR      37  27  67 SE7       30.16S WCI  32
NEAR YELLVILLE FAIR      37  25  60 CALM      30.19R

......KANSAS AND MISSOURI......

CITY           SKY/WX    TMP DP  RH WIND       PRES   REMARKS
KANSAS CTY INT FAIR      47  26  44 S18G26    29.98F
DOWNTOWN KC    FAIR      48  26  42 S16G24    30.01F
COLUMBIA       FAIR      38  24  57 SE8       30.13F WCI  32
SEDALIA        FAIR      41  25  53 SE10      30.10F
ST JOSEPH      FAIR      46  28  49 S16       29.97S
ST LOUIS       FAIR      42  22  44 SE13      30.22R
SPIRIT OF STL  FAIR      39  21  48 SE5       30.20S
KIRKSVILLE     FAIR      38  26  62 S15       30.07F WCI  29
WICHITA        MOCLDY    50  20  30 S20       29.92F
TOPEKA         FAIR      49  28  44 S20G28    29.96F
OLATHE         FAIR      43  27  53 S15       30.00F

......TENNESSEE......

CITY           SKY/WX    TMP DP  RH WIND       PRES   REMARKS
MEMPHIS        FAIR      42  24  49 SE3       30.25F
NASHVILLE      FAIR      36  23  59 N5        30.28R WCI  32

......ARKANSAS.......

CITY           SKY/WX    TMP DP  RH WIND       PRES   REMARKS
FAYETTEVILLE   FAIR      35  32  88 CALM      30.13S
FT SMITH       FAIR      48  29  47 SE3       30.14S
LITTLE ROCK    FAIR      43  34  70 SE6       30.24R

......OKLAHOMA.......

CITY           SKY/WX    TMP DP  RH WIND       PRES   REMARKS
TULSA          MOCLDY    51  27  39 S14       30.06S
PONCA CITY     FAIR      52  23  32 S15G21    29.98F
MCALESTER      FAIR      50  27  40 S7        30.11F
OKLAHOMA CITY  MOCLDY    49  24  37 S14       30.01F

......IOWA............

CITY           SKY/WX    TMP DP  RH WIND       PRES   REMARKS
DES MOINES     FAIR      40  25  55 SE12      29.98F WCI  33
QUAD CITIES    FAIR      29  19  66 E6        30.16S WCI  23

......ILLINOIS........

CITY           SKY/WX    TMP DP  RH WIND       PRES   REMARKS
QUINCY         FAIR      37  23  56 S7        30.14S WCI  32
CHICAGO        FAIR      29  19  66 S6        30.21R WCI  23



USA.gov is the U.S. government's official web portal to all federal, state and local government web resources and services.